Weather History for KAXX - August, 2014

Change the Weather History Date:

Sunday, August 17, 2014

  Actual Average (KSKX) Record (KSKX)
Temperature  
Mean Temperature 56 °F -  
Max Temperature 74 °F 79 °F 91 °F (2002)
Min Temperature 37 °F 47 °F 42 °F (2001)
Degree Days  
Heating Degree Days 10    
Growing Degree Days 6 (Base 50)    
Moisture  
Dew Point 40 °F    
Average Humidity 62    
Maximum Humidity 92    
Minimum Humidity 23    
Precipitation  
Precipitation 0.00 in - - ()
Sea Level Pressure  
Sea Level Pressure 30.45 in    
Wind  
Wind Speed 1 mph (WSW)    
Max Wind Speed 16 mph    
Max Gust Speed 17 mph    
Visibility 10 miles    
Events      
Averages and records for this station are not official NWS values.
T = Trace of Precipitation, MM = Missing Value Source: NWS Daily Summary

Daily Weather History Graph

Daily Weather History Graph

Search for Another Location

Airport or City:

Trip Planner

Search our weather history database for the weather conditions in past years. The results will help you decide how hot, cold, wet, or windy it might be!

Date:

Astronomy

Aug. 17, 2014 Rise Set
Actual Time 6:20 AM MDT 7:49 PM MDT
Civil Twilight 5:53 AM MDT 8:16 PM MDT
Nautical Twilight 5:20 AM MDT 8:48 PM MDT
Astronomical Twilight 4:46 AM MDT 9:23 PM MDT
Moon No Moon Rise 1:55 PM MDT (8/17)
Length of Visible Light 14h 23m
Length of Day
13h 28m
Waning Gibbous, 48% of the Moon is Illuminated
Aug 17
Waning Gibbous
Aug 25
New
Sep 2
First Quarter
Sep 8
Full
Sep 15
Last Quarter

Hourly Weather History & Observations

Time (MDT) Temp. Windchill Dew Point Humidity Pressure Visibility Wind Dir Wind Speed Gust Speed Precip Events Conditions
12:15 AM 45.5 °F - 42.3 °F 88% 30.47 in 10.0 mi Calm Calm - N/A   Clear
12:35 AM 45.0 °F - 41.7 °F 88% 30.47 in 10.0 mi Calm Calm - N/A   Clear
12:55 AM 44.2 °F - 40.8 °F 88% 30.47 in 10.0 mi Calm Calm - N/A   Clear
1:15 AM 44.8 °F - 41.5 °F 88% 30.47 in 10.0 mi Calm Calm - N/A   Clear
1:35 AM 42.3 °F - 39.6 °F 90% 30.47 in 10.0 mi Calm Calm - N/A   Clear
1:55 AM 43.5 °F 41.9 °F 40.5 °F 89% 30.47 in 10.0 mi SSE 3.5 mph - N/A   Clear
2:15 AM 41.7 °F - 38.8 °F 89% 30.47 in 10.0 mi Calm Calm - N/A   Clear
2:35 AM 42.6 °F - 39.9 °F 90% 30.47 in 10.0 mi Calm Calm - N/A   Clear
2:55 AM 42.4 °F - 39.6 °F 90% 30.47 in 10.0 mi Calm Calm - N/A   Clear
3:15 AM 41.0 °F - 38.3 °F 90% 30.46 in 10.0 mi Calm Calm - N/A   Clear
3:35 AM 41.4 °F - 39.2 °F 92% 30.47 in 10.0 mi Calm Calm - N/A   Clear
3:55 AM 40.3 °F - 37.6 °F 90% 30.47 in 10.0 mi Calm Calm - N/A   Clear
4:15 AM 40.6 °F - 37.9 °F 90% 30.47 in 10.0 mi Calm Calm - N/A   Clear
4:35 AM 38.3 °F - 35.8 °F 91% 30.47 in 10.0 mi Calm Calm - N/A   Clear
4:55 AM 40.1 °F - 37.8 °F 91% 30.47 in 10.0 mi Calm Calm - N/A   Clear
5:15 AM 40.6 °F 38.6 °F 38.3 °F 91% 30.47 in 10.0 mi South 3.5 mph - N/A   Clear
5:35 AM 38.7 °F - 36.5 °F 92% 30.48 in 10.0 mi Calm Calm - N/A   Clear
5:55 AM 40.6 °F - 38.5 °F 92% 30.48 in 10.0 mi Calm Calm - N/A   Clear
6:15 AM 37.8 °F - 35.4 °F 91% 30.49 in 10.0 mi Calm Calm - N/A   Clear
6:35 AM 39.4 °F - 36.7 °F 90% 30.49 in 10.0 mi Calm Calm - N/A   Clear
6:55 AM 38.7 °F - 36.3 °F 91% 30.50 in 10.0 mi Calm Calm - N/A   Clear
7:15 AM 41.5 °F - 39.4 °F 92% 30.50 in 10.0 mi Calm Calm - N/A   Clear
7:35 AM 44.6 °F - 41.9 °F 90% 30.50 in 10.0 mi Calm Calm - N/A   Clear
7:55 AM 46.9 °F - 43.7 °F 88% 30.50 in 10.0 mi Calm Calm - N/A   Scattered Clouds
8:15 AM 50.0 °F - 45.0 °F 83% 30.50 in 10.0 mi Calm Calm - N/A   Mostly Cloudy
8:35 AM 54.0 °F - 45.5 °F 73% 30.50 in 10.0 mi Calm Calm - N/A   Mostly Cloudy
8:55 AM 55.9 °F - 45.5 °F 68% 30.49 in 10.0 mi Calm Calm - N/A   Mostly Cloudy
9:15 AM 57.9 °F - 44.6 °F 61% 30.49 in 10.0 mi Calm Calm - N/A   Mostly Cloudy
9:35 AM 61.2 °F - 45.7 °F 57% 30.48 in 10.0 mi Calm Calm - N/A   Mostly Cloudy
10:15 AM 64.8 °F - 45.0 °F 49% 30.48 in 10.0 mi Calm Calm - N/A   Clear
10:35 AM 67.3 °F - 44.2 °F 43% 30.48 in 10.0 mi Calm Calm - N/A   Clear
10:55 AM 69.4 °F - 45.3 °F 42% 30.47 in 10.0 mi Calm Calm - N/A   Clear
11:15 AM 71.6 °F - 39.7 °F 31% 30.47 in 10.0 mi Calm Calm - N/A   Clear
11:35 AM 73.6 °F - 37.8 °F 27% 30.47 in 10.0 mi West 3.5 mph - N/A   Clear
11:55 AM 66.9 °F - 43.7 °F 43% 30.46 in 10.0 mi WNW 16.1 mph - N/A   Mostly Cloudy
12:15 PM 71.2 °F - 41.9 °F 35% 30.46 in 10.0 mi West 10.4 mph 16.1 mph N/A   Scattered Clouds
12:35 PM 73.4 °F - 37.2 °F 27% 30.45 in 10.0 mi NNE 4.6 mph - N/A   Clear
12:55 PM 72.0 °F - 36.5 °F 27% 30.45 in 10.0 mi SSE 6.9 mph - N/A   Clear
1:15 PM 72.3 °F - 36.1 °F 27% 30.45 in 10.0 mi Calm Calm - N/A   Mostly Cloudy
1:35 PM 72.5 °F - 35.8 °F 26% 30.45 in 10.0 mi Calm Calm - N/A   Scattered Clouds
1:55 PM 73.0 °F - 39.7 °F 30% 30.45 in 10.0 mi North 10.4 mph 16.1 mph N/A   Mostly Cloudy
2:15 PM 68.0 °F - 42.4 °F 39% 30.45 in 10.0 mi NE 12.7 mph 17.3 mph N/A   Overcast
2:35 PM 66.7 °F - 45.9 °F 47% 30.46 in 10.0 mi North 10.4 mph - N/A   Overcast
3:15 PM 70.3 °F - 40.8 °F 34% 30.44 in 10.0 mi WNW 4.6 mph - N/A   Scattered Clouds
3:35 PM 70.3 °F - 39.7 °F 33% 30.44 in 10.0 mi WSW 4.6 mph - N/A   Scattered Clouds
3:55 PM 73.2 °F - 34.9 °F 25% 30.42 in 10.0 mi Calm Calm - N/A   Clear
4:15 PM 73.2 °F - 36.3 °F 26% 30.42 in 10.0 mi Calm Calm - N/A   Clear
4:35 PM 73.8 °F - 33.6 °F 23% 30.40 in 10.0 mi Calm Calm - N/A   Clear
4:55 PM 74.3 °F - 35.6 °F 24% 30.39 in 10.0 mi South 8.1 mph - N/A   Clear
5:15 PM 74.5 °F - 33.8 °F 23% 30.39 in 10.0 mi SW 4.6 mph - N/A   Clear
5:35 PM 71.4 °F - 33.6 °F 25% 30.39 in 10.0 mi SSW 6.9 mph - N/A   Clear
5:55 PM 69.3 °F - 37.4 °F 31% 30.39 in 10.0 mi WSW 5.8 mph - N/A   Scattered Clouds
6:15 PM 67.3 °F - 43.5 °F 42% 30.39 in 10.0 mi Calm Calm - N/A   Scattered Clouds
6:35 PM 67.3 °F - 45.3 °F 45% 30.39 in 10.0 mi Calm Calm - N/A   Clear
6:55 PM 66.7 °F - 41.0 °F 39% 30.39 in 10.0 mi West 8.1 mph - N/A   Clear
7:15 PM 66.0 °F - 39.0 °F 37% 30.40 in 10.0 mi West 10.4 mph - N/A   Scattered Clouds
7:35 PM 64.4 °F - 40.3 °F 41% 30.40 in 10.0 mi Calm Calm - N/A   Clear
7:55 PM 64.4 °F - 40.8 °F 42% 30.40 in 10.0 mi Calm Calm - N/A   Clear
8:15 PM 60.1 °F - 42.1 °F 51% 30.40 in 10.0 mi Calm Calm - N/A   Clear
8:35 PM 58.1 °F - 41.9 °F 55% 30.41 in 10.0 mi Calm Calm - N/A   Clear
8:55 PM 53.2 °F - 43.3 °F 69% 30.42 in 10.0 mi Calm Calm - N/A   Clear
9:15 PM 54.0 °F - 42.4 °F 65% 30.43 in 10.0 mi WSW 3.5 mph - N/A   Clear
9:35 PM 51.4 °F - 43.2 °F 73% 30.44 in 10.0 mi Calm Calm - N/A   Clear
9:55 PM 49.6 °F - 43.0 °F 78% 30.44 in 10.0 mi Calm Calm - N/A   Clear
10:15 PM 48.4 °F - 42.3 °F 79% 30.45 in 10.0 mi Calm Calm - N/A   Clear
10:35 PM 47.3 °F - 41.4 °F 80% 30.45 in 10.0 mi Calm Calm - N/A   Clear
10:55 PM 46.8 °F - 40.5 °F 79% 30.45 in 10.0 mi Calm Calm - N/A   Clear
11:15 PM 46.4 °F 43.5 °F 40.6 °F 80% 30.45 in 10.0 mi SE 5.8 mph - N/A   Clear
11:35 PM 45.0 °F 42.6 °F 41.0 °F 86% 30.45 in 10.0 mi SE 4.6 mph - N/A   Clear
11:55 PM 43.3 °F - 39.9 °F 88% 30.45 in 10.0 mi Calm Calm - N/A   Clear